| Date | Time | Temp. (oF) | Dew Point (oF) | Rel. Hum. (%) | Press. (in.) | Wind Dir. | Wind Speed (mph) | Hourly Rainfall (in.) |
|
|---|---|---|---|---|---|---|---|---|---|
| 1 | 03/02 | 00:00 | 34 | 33 | 100 | 30.05 | ESE | 4 | 0.00 |
| 2 | 03/01 | 23:00 | 34 | 33 | 100 | 30.07 | ESE | 2 | 0.00 |
| 3 | 03/01 | 22:00 | 34 | 33 | 100 | 30.10 | ESE | 2 | 0.00 |
| 4 | 03/01 | 21:00 | 34 | 33 | 100 | 30.11 | SE | 1 | 0.00 |
| 5 | 03/01 | 20:00 | 34 | 33 | 100 | 30.13 | SSE | 1 | 0.00 |
| 6 | 03/01 | 19:00 | 34 | 33 | 100 | 30.13 | SE | 2 | 0.00 |
| 7 | 03/01 | 18:00 | 34 | 33 | 100 | 30.15 | S | 2 | 0.00 |
| 8 | 03/01 | 17:00 | 34 | 33 | 100 | 30.15 | S | 4 | 0.00 |
| 9 | 03/01 | 16:00 | 34 | 33 | 100 | 30.16 | S | 4 | 0.00 |
| 10 | 03/01 | 15:00 | 34 | 33 | 100 | 30.17 | SSE | 4 | 0.00 |
| 11 | 03/01 | 14:00 | 35 | 34 | 98 | 30.17 | SSE | 4 | 0.00 |
| 12 | 03/01 | 13:00 | 35 | 33 | 96 | 30.19 | SE | 11 | 0.00 |
| 13 | 03/01 | 12:00 | 34 | 33 | 99 | 30.22 | SSE | 4 | 0.00 |
| 14 | 03/01 | 11:00 | 33 | 32 | 97 | 30.24 | SSE | 6 | 0.00 |
| 15 | 03/01 | 10:00 | 32 | 31 | 98 | 30.26 | SE | 4 | 0.00 |
| 16 | 03/01 | 09:00 | 31 | 31 | 100 | 30.26 | SSE | 7 | 0.00 |
| 17 | 03/01 | 08:00 | 31 | 31 | 100 | 30.25 | S | 2 | 0.00 |
| 18 | 03/01 | 07:00 | 30 | 29 | 99 | 30.23 | ESE | 0 | 0.00 |
| 19 | 03/01 | 06:00 | 30 | 29 | 97 | 30.22 | E | 1 | 0.00 |
| 20 | 03/01 | 05:00 | 30 | 29 | 96 | 30.22 | E | 1 | 0.00 |
| 21 | 03/01 | 04:00 | 30 | 28 | 94 | 30.23 | S | 0 | 0.00 |
| 22 | 03/01 | 03:00 | 30 | 28 | 93 | 30.24 | S | 0 | 0.00 |
| 23 | 03/01 | 02:00 | 29 | 27 | 93 | 30.25 | SE | 0 | 0.00 |
| 24 | 03/01 | 01:00 | 30 | 27 | 92 | 30.26 | S | 0 | 0.00 |